Kearney, NE

11:47 AM CDT on April 28, 2017 (GMT -0500)
Kearney Municipal

Weather History for KEAR - February, 2014

Change the Weather History Date:

Friday, February 28, 2014

  Actual Average Record
Temperature  
Mean Temperature 28 °F 32 °F  
Max Temperature 39 °F 44 °F 81 °F (2006)
Min Temperature 16 °F 20 °F -21 °F (1962)
Degree Days  
Heating Degree Days 37 33  
Month to date heating degree days 1032  
Cooling Degree Days 0 0  
Month to date cooling degree days 0  
Moisture  
Dew Point 14 °F    
Average Humidity 63    
Maximum Humidity 77    
Minimum Humidity 48    
Precipitation  
Precipitation 0.00 in - 0.64 in (1987)
Sea Level Pressure  
Sea Level Pressure 29.82 in    
Wind  
Wind Speed 14 mph (NNE)    
Max Wind Speed 28 mph    
Max Gust Speed 33 mph    
Visibility 10 miles    
Events      
T = Trace of Precipitation, MM = Missing Value Source: NWS Daily Summary

Daily Weather History Graph

Daily Weather History Graph

Search for Another Location

Airport or City:

Trip Planner

Search our weather history database for the weather conditions in past years. The results will help you decide how hot, cold, wet, or windy it might be!

Date:

Astronomy

Feb. 28, 2014 Rise Set
Actual Time 7:11 AM CST 6:26 PM CST
Civil Twilight 6:43 AM CST 6:53 PM CST
Nautical Twilight 6:12 AM CST 7:25 PM CST
Astronomical Twilight 5:40 AM CST 7:57 PM CST
Moon 6:27 AM CST 6:05 PM CST
Length of Visible Light 12h 09m
Length of Day
11h 14m
Waning Crescent, 1% of the Moon is Illuminated
Feb 28
Waning Crescent
Mar 1
New
Mar 8
First Quarter
Mar 16
Full
Mar 23
Last Quarter

Hourly Weather History & Observations

Time (CST) Temp. Windchill Dew Point Humidity Pressure Visibility Wind Dir Wind Speed Gust Speed Precip Events Conditions
12:15 AM 17.6 °F 7.3 °F 6.8 °F 63% 29.70 in 10.0 mi ESE 8.1 mph - N/A   Clear
12:35 AM 17.6 °F 8.2 °F 6.8 °F 63% 29.70 in 10.0 mi ESE 6.9 mph - N/A   Clear
12:55 AM 15.8 °F 7.2 °F 6.8 °F 68% 29.70 in 10.0 mi ESE 5.8 mph - N/A   Clear
1:15 AM 15.8 °F 6.1 °F 8.6 °F 73% 29.69 in 10.0 mi ESE 6.9 mph - N/A   Clear
1:35 AM 15.8 °F 6.1 °F 8.6 °F 73% 29.68 in 10.0 mi ESE 6.9 mph - N/A   Clear
1:55 AM 15.8 °F 5.1 °F 8.6 °F 73% 29.67 in 10.0 mi ESE 8.1 mph - N/A   Clear
2:15 AM 17.6 °F 8.2 °F 8.6 °F 68% 29.66 in 10.0 mi ESE 6.9 mph - N/A   Clear
2:35 AM 17.6 °F 9.3 °F 8.6 °F 68% 29.66 in 10.0 mi SE 5.8 mph - N/A   Clear
2:55 AM 17.6 °F 8.2 °F 10.4 °F 73% 29.65 in 10.0 mi SSE 6.9 mph - N/A   Clear
3:15 AM 19.4 °F 7.9 °F 10.4 °F 68% 29.64 in 10.0 mi SSE 10.4 mph - N/A   Scattered Clouds
3:35 AM 21.2 °F 10.9 °F 10.4 °F 63% 29.64 in 10.0 mi SSE 9.2 mph - N/A   Mostly Cloudy
3:55 AM 21.2 °F 14.9 °F 10.4 °F 63% 29.64 in 10.0 mi SSE 4.6 mph - N/A   Overcast
4:15 AM 21.2 °F 13.6 °F 12.2 °F 68% 29.64 in 10.0 mi SSE 5.8 mph - N/A   Mostly Cloudy
4:35 AM 21.2 °F 12.6 °F 12.2 °F 68% 29.64 in 10.0 mi SE 6.9 mph - N/A   Overcast
4:55 AM 21.2 °F 13.6 °F 12.2 °F 68% 29.64 in 10.0 mi SE 5.8 mph - N/A   Overcast
5:15 AM 21.2 °F 16.4 °F 12.2 °F 68% 29.64 in 10.0 mi SE 3.5 mph - N/A   Overcast
5:35 AM 21.2 °F 16.4 °F 12.2 °F 68% 29.63 in 10.0 mi SE 3.5 mph - N/A   Mostly Cloudy
5:55 AM 19.4 °F 11.5 °F 12.2 °F 74% 29.63 in 10.0 mi SE 5.8 mph - N/A   Partly Cloudy
6:15 AM 19.4 °F - 12.2 °F 74% 29.65 in 10.0 mi Calm Calm - N/A   Clear
6:35 AM 19.4 °F - 12.2 °F 74% 29.66 in 10.0 mi Calm Calm - N/A   Clear
6:55 AM 19.4 °F - 12.2 °F 74% 29.65 in 10.0 mi Calm Calm - N/A   Scattered Clouds
7:15 AM 19.4 °F - 14.0 °F 80% 29.66 in 10.0 mi Calm Calm - N/A   Overcast
7:35 AM 21.2 °F - 15.8 °F 80% 29.66 in 10.0 mi Calm Calm - N/A   Overcast
7:55 AM 21.2 °F - 15.8 °F 80% 29.67 in 10.0 mi Calm Calm - N/A   Overcast
8:15 AM 23.0 °F 18.4 °F 15.8 °F 74% 29.67 in 10.0 mi South 3.5 mph - N/A   Mostly Cloudy
8:35 AM 24.8 °F 20.5 °F 17.6 °F 74% 29.68 in 10.0 mi SSW 3.5 mph - N/A   Mostly Cloudy
8:55 AM 26.6 °F 19.1 °F 17.6 °F 69% 29.69 in 10.0 mi SW 6.9 mph - N/A   Scattered Clouds
9:15 AM 28.4 °F 19.1 °F 14.0 °F 55% 29.70 in 10.0 mi SSW 10.4 mph - N/A   Mostly Cloudy
9:35 AM 28.4 °F 19.1 °F 15.8 °F 59% 29.70 in 10.0 mi SW 10.4 mph - N/A   Mostly Cloudy
9:55 AM 30.2 °F 22.6 °F 15.8 °F 55% 29.73 in 10.0 mi WNW 8.1 mph - N/A   Overcast
10:15 AM 30.2 °F 23.4 °F 15.8 °F 55% 29.75 in 10.0 mi West 6.9 mph - N/A   Mostly Cloudy
10:35 AM 30.2 °F 23.4 °F 15.8 °F 55% 29.75 in 10.0 mi WNW 6.9 mph - N/A   Scattered Clouds
10:55 AM 32.0 °F 24.8 °F 15.8 °F 51% 29.75 in 10.0 mi WNW 8.1 mph - N/A   Mostly Cloudy
11:15 AM 35.6 °F 29.2 °F 17.6 °F 48% 29.76 in 10.0 mi WNW 8.1 mph - N/A   Mostly Cloudy
11:35 AM 35.6 °F 25.5 °F 17.6 °F 48% 29.77 in 10.0 mi NNW 17.3 mph 21.9 mph N/A   Mostly Cloudy
11:55 AM 37.4 °F 27.2 °F 19.4 °F 48% 29.78 in 10.0 mi North 19.6 mph 23.0 mph N/A   Mostly Cloudy
12:15 PM 35.6 °F 24.8 °F 19.4 °F 52% 29.80 in 10.0 mi North 19.6 mph 25.3 mph N/A   Overcast
12:35 PM 37.4 °F 27.5 °F 19.4 °F 48% 29.80 in 10.0 mi North 18.4 mph 21.9 mph N/A   Scattered Clouds
12:55 PM 37.4 °F 26.9 °F 19.4 °F 48% 29.80 in 10.0 mi North 20.7 mph - N/A   Clear
1:15 PM 37.4 °F 27.8 °F 19.4 °F 48% 29.80 in 10.0 mi North 17.3 mph 21.9 mph N/A   Clear
1:35 PM 37.4 °F 27.2 °F 21.2 °F 52% 29.81 in 10.0 mi North 19.6 mph 26.5 mph N/A   Clear
1:55 PM 35.6 °F 23.7 °F 21.2 °F 56% 29.83 in 10.0 mi North 24.2 mph - N/A   Partly Cloudy
2:15 PM 33.8 °F 21.6 °F 21.2 °F 60% 29.85 in 10.0 mi North 23.0 mph 31.1 mph N/A   Mostly Cloudy
2:35 PM 32.0 °F 19.2 °F 19.4 °F 60% 29.87 in 10.0 mi North 23.0 mph 32.2 mph N/A   Overcast
2:55 PM 33.8 °F 20.5 °F 19.4 °F 56% 29.87 in 10.0 mi North 27.6 mph 33.4 mph N/A   Overcast
3:15 PM 30.2 °F 17.1 °F 21.2 °F 69% 29.89 in 10.0 mi North 21.9 mph 32.2 mph N/A   Overcast
3:35 PM 30.2 °F 15.9 °F 21.2 °F 69% 29.89 in 10.0 mi North 26.5 mph 29.9 mph N/A   Overcast
3:55 PM 28.4 °F 13.8 °F 19.4 °F 69% 29.89 in 10.0 mi North 25.3 mph 29.9 mph N/A   Overcast
4:15 PM 28.4 °F 14.7 °F 21.2 °F 74% 29.88 in 10.0 mi North 21.9 mph 27.6 mph N/A   Overcast
4:35 PM 28.4 °F 13.8 °F 19.4 °F 69% 29.89 in 10.0 mi North 25.3 mph - N/A   Overcast
4:55 PM 28.4 °F 13.8 °F 17.6 °F 64% 29.90 in 10.0 mi NNE 25.3 mph 32.2 mph N/A   Mostly Cloudy
5:15 PM 26.6 °F 12.0 °F 15.8 °F 64% 29.91 in 10.0 mi North 23.0 mph - N/A   Partly Cloudy
5:35 PM 26.6 °F 12.7 °F 15.8 °F 64% 29.92 in 10.0 mi NNE 20.7 mph 28.8 mph N/A   Scattered Clouds
5:55 PM 26.6 °F 12.7 °F 17.6 °F 69% 29.94 in 10.0 mi North 20.7 mph - N/A   Mostly Cloudy
6:15 PM 24.8 °F 10.3 °F 14.0 °F 64% 29.95 in 10.0 mi NNE 20.7 mph 29.9 mph N/A   Mostly Cloudy
6:35 PM 24.8 °F 11.5 °F 14.0 °F 64% 29.97 in 10.0 mi NNE 17.3 mph - N/A   Mostly Cloudy
6:55 PM 24.8 °F 10.7 °F 15.8 °F 69% 29.99 in 10.0 mi North 19.6 mph 23.0 mph N/A   Overcast
7:15 PM 23.0 °F 8.3 °F 15.8 °F 74% 30.00 in 10.0 mi North 19.6 mph - N/A   Overcast
7:35 PM 21.2 °F 6.0 °F 12.2 °F 68% 30.02 in 10.0 mi North 19.6 mph 25.3 mph N/A   Overcast
7:55 PM 21.2 °F 6.0 °F 12.2 °F 68% 30.03 in 10.0 mi North 19.6 mph - N/A   Overcast
8:15 PM 19.4 °F 3.6 °F 10.4 °F 68% 30.05 in 10.0 mi North 19.6 mph - N/A   Overcast
8:35 PM 19.4 °F 3.2 °F 10.4 °F 68% 30.04 in 10.0 mi North 20.7 mph - N/A   Overcast
8:55 PM 19.4 °F 3.6 °F 10.4 °F 68% 30.05 in 10.0 mi North 19.6 mph - N/A   Overcast
9:15 PM 19.4 °F 4.5 °F 8.6 °F 63% 30.06 in 10.0 mi North 17.3 mph - N/A   Overcast
9:35 PM 17.6 °F 1.3 °F 8.6 °F 68% 30.09 in 10.0 mi North 19.6 mph - N/A   Overcast
9:55 PM 17.6 °F 1.3 °F 8.6 °F 68% 30.09 in 10.0 mi North 19.6 mph 23.0 mph N/A   Overcast
10:15 PM 17.6 °F 0.9 °F 8.6 °F 68% 30.10 in 10.0 mi North 20.7 mph - N/A   Overcast
10:35 PM 17.6 °F 0.9 °F 8.6 °F 68% 30.11 in 10.0 mi North 20.7 mph - N/A   Overcast
10:55 PM 17.6 °F 2.2 °F 8.6 °F 68% 30.11 in 10.0 mi North 17.3 mph 24.2 mph N/A   Overcast
11:15 PM 17.6 °F 2.7 °F 10.4 °F 73% 30.11 in 10.0 mi North 16.1 mph - N/A   Overcast
11:35 PM 17.6 °F 1.7 °F 8.6 °F 68% 30.11 in 10.0 mi North 18.4 mph - N/A   Overcast
11:55 PM 17.6 °F 0.9 °F 8.6 °F 68% 30.12 in 10.0 mi North 20.7 mph - N/A   Overcast